Location: *
(31.2983°S, 151.4094°E)
Time: 12:20:55
(UTC+00:00)

Centaur AC-42 - Pass Details

Date: 25 August 2019
Orbit: 600 x 36287 km, 20.3° (Epoch: 16 September)

Event Time Altitude Azimuth Distance (km) Brightness Sun altitude
Rises 17:08:01 0° 275° (W) 18,989 8.6 -41.3°
Enters shadow 17:14:27 - 275° (W) 17,416 8.4 -39.9°
Exits shadow 17:59:42 40° 326° (NW) 2,362 4.1 -30.4°
Maximum altitude 18:00:41 41° 341° (NNW) 2,110 3.9 -30.2°
Drops below altitude 10° 18:05:38 10° 53° (NE) 2,484 5.2 -29.1°
Sets 18:07:16 0° 62° (ENE) 3,113 6.0 -28.8°
